Starlink 32471

operational
NORAD ID: 61968 Int'l Des: 2024-210 Owner: SPXS Country: US Constellation: starlink
LEOCIRCULAR

Starlink 32471について

説明を読み込み中...

リアルタイム位置

3D地球を読み込み中...

次回通過

高度履歴

Altitude vs Time

uPlot chart will show altitude changes over time

軌道要素

1 61968U 24210K 25257.93576669 .00028048 00000-0 10240-2 0 9992
2 61968 43.0018 85.2171 0001850 280.4244 79.6400 15.27607135 48128
Epoch: Sep 14, 2025 • Age: 21 hours

現在のステータス

高度 483.4 km
速度 7.63 km/s
衛星直下点 22.55°N, 53.43°W
打ち上げ日 Nov 14, 2024
運用期間 0.8 years
タイプ internet

技術仕様

分類 Payload
質量 730.00 kg
乾燥質量 700.00 kg
総質量 730.00 kg
長さ 0.30 m
直径 4.10 m
スパン 29.00 m
形状 Box + pan
製造者 SPXS
バスタイプ Starlink V2M
フェーズステータス In Orbit
所有者/国 SPXS/US

大規模コンステレーション

Loading constellations...